Regional Weather Roundup
Issued by NWS

Home | Current Version | Previous Version | Graphics & Text | Print | Product List | Glossary On
Versions: 1 2 3 4 5 6 7 8 9 10 11 12 13 14 15 16 17 18 19 20 21 22 23 24 25 26 27 28 29 30 31 32 33 34 35 36 37 38 39 40 41 42 43 44 45 46 47 48 49 50
000
ASUS43 KLOT 210108
RWRIL

ILLINOIS REGIONAL WEATHER ROUNDUP
NATIONAL WEATHER SERVICE CHICAGO/ROMEOVILLE IL
700 PM CST MON NOV 20 2017

NOTE: "FAIR" INDICATES FEW OR NO CLOUDS BELOW 12,000 FEET WITH NO
SIGNIFICANT WEATHER AND/OR OBSTRUCTIONS TO VISIBILITY.

* THESE STATIONS ARE NOT UNDER NWS QUALITY CONTROL. THEY ALSO MAY NOT
  REPORT WEATHER SUCH AS PRECIPITATION OR FOG.

ILZ001-002-007-009-015-016-024-210200-
NORTHWEST ILLINOIS

CITY           SKY/WX    TMP DP  RH WIND       PRES   REMARKS
MOLINE         CLOUDY    52  32  46 S13G22    29.70S
STERLING*      CLOUDY    48  33  56 VRB3      29.72S
SAVANNA*       CLOUDY    47  33  59 S8        29.68S
$$

ILZ003-004-008-010-011-017-018-210200-
NORTH CENTRAL ILLINOIS

CITY           SKY/WX    TMP DP  RH WIND       PRES   REMARKS
ROCKFORD       CLOUDY    45  33  63 S13       29.72S
FREEPORT*      CLOUDY    47  33  56 S21G28    29.69S
ROCHELLE*      CLOUDY    40  34  78 S10       29.72S
DE KALB*       CLOUDY    44  35  69 S20G25    29.74R
PERU*          CLEAR     46  32  58 S18G24    29.77R
$$

ILZ005-006-012>014-019>023-210200-
NORTHEAST ILLINOIS

CITY           SKY/WX    TMP DP  RH WIND       PRES   REMARKS
CHICAGO-OHARE  MOCLDY    48  32  53 S20G32    29.73S
CHICAGO-MIDWAY MOCLDY    47  34  60 S18G30    29.76S
AURORA         CLOUDY    46  33  60 S15G24    29.76R
LANSING*       CLEAR     44  34  68 S22G30    29.79S
JOLIET*        CLEAR     47  34  58 S18G28    29.78S
WAUKEGAN       CLOUDY    48  33  56 SW23G36   29.69S
DUPAGE AIRPORT CLEAR     45  35  68 S20G32    29.74R
KANKAKEE*      CLEAR     43  32  65 S15G21    29.82F
WHEELING       CLEAR     50  33  52 S17G31    29.74R
MORRIS*        CLEAR     45  33  61 S20G26    29.77R
ROMEOVILLE*    CLEAR     45  33  62 S22G29    29.77S
NORTHERLY ISL    N/A     47  31  54 S16         N/A
$$

LMZ740>746-210200-
SOUTHERN LAKE MICHIGAN

STATION/POSITION SKY/WX   TEMP    WIND        PRES    VSBY  WAVE
                          AIR SEA DIR/SP/G                  HT/PER
                          (F)     (DEG/KT/KT) (MB)    (MI)  (FT/S)
SOUTHERN BUOY              50 49  210/ 29/ 35 1005.1          7/ 6
HARRISON CRIB              49     210/ 37/ 43   N/A
BURNHAM HARBOR             47     190/ 17/ 27   N/A
CALUMET HARBOR             47     190/ 16/ 26 1007.1F
BURNS HARBOR               46     190/ 22/ 30 1008.8F
MICHIGAN CITY              46     180/ 23/ 28   N/A
$$

ILZ025>027-034>036-040-047-049-050-058-095>099-210200-
WEST-CENTRAL ILLINOIS

CITY           SKY/WX    TMP DP  RH WIND       PRES   REMARKS
QUINCY         CLOUDY    51  30  44 S14       29.78S
GALESBURG*     CLOUDY    50  33  53 S14       29.75F
MACOMB*        CLOUDY    50  32  49 S13       29.78S
JACKSONVILLE*  CLEAR     48  29  48 S12       29.82R
PITTSFIELD*    CLEAR     52  29  41 S12       29.81S
$$

ILZ028>032-037-038-041>044-048-051>054-059>061-210200-
CENTRAL ILLINOIS

CITY           SKY/WX    TMP DP  RH WIND       PRES   REMARKS
PONTIAC        CLEAR     45  33  64 S22G32    29.79F
BLOOMINGTON    CLEAR     43  31  62 S23       29.80F
DECATUR        CLEAR     44  30  57 S17       29.85F
PEORIA         CLEAR     47  33  58 S17G28    29.79R
LACON*         CLOUDY    48  32  52 SW10G20   29.76R
LINCOLN*       CLEAR     45  34  65 S17G25    29.82S
SPRINGFIELD    CLEAR     48  32  53 S21G33    29.83S
TAYLORVILLE    CLEAR     44  31  60 S23G30    29.85S
$$

ILZ033-039-045-046-055>057-062-063-210200-
EAST-CENTRAL ILLINOIS

CITY           SKY/WX    TMP DP  RH WIND       PRES   REMARKS
CHAMPAIGN      CLEAR     43  31  62 S21       29.86F
DANVILLE*      CLEAR     43  30  61 S20G26    29.86F
RANTOUL*       CLEAR     42  34  73 S14       29.86F
MATTOON        CLEAR     44  29  55 S15       29.90F
PARIS*         CLEAR     42  31  66 S17       29.93F
$$

ILZ079-100>102-210200-
SOUTHWEST ILLINOIS

CITY           SKY/WX    TMP DP  RH WIND       PRES   REMARKS
ALTON          CLEAR     46  32  57 S14       29.88S
BELLEVILLE     CLEAR     45  31  56 S12       29.90S
CAHOKIA*       CLEAR     49  27  42 S9        29.89S
SPARTA*        CLEAR     45  32  59 S13       29.96R
$$

ILZ064>066-069>071-074>076-080>082-084>086-088>090-092>094-210200-
SOUTH-CENTRAL ILLINOIS

CITY           SKY/WX    TMP DP  RH WIND       PRES   REMARKS
CARBONDALE     CLEAR     44  28  53 S12       29.99F
CAIRO*         CLEAR     42  28  57 S5        30.05S
EFFINGHAM*     CLEAR     45  29  54 SE8G16    29.95F
MARION         PTCLDY    45  28  53 S12       30.01F
MT. VERNON     CLEAR     45  28  51 S10       29.98F
CENTRALIA*     CLEAR     45  31  60 S14       29.94F
SALEM*         CLEAR     47  28  49 S13G18    29.95S
METROPOLIS*    CLOUDY    43  26  50 S6        30.04F
$$

ILZ067-068-072-073-078-083-087-091-210200-
SOUTHEAST ILLINOIS

CITY           SKY/WX    TMP DP  RH WIND       PRES   REMARKS
LAWRENCEVILLE  CLEAR     41  29  62 MISG      29.99F
FLORA*         CLEAR     44  30  59 S12       29.97F
FAIRFIELD*     CLEAR     44  28  54 S3        29.97F
HARRISBURG*    CLEAR     39  29  67 S7        30.02F WCI  34
ROBINSON*      CLEAR     41  28  60 S9        29.98F
CARMI*         CLEAR     37  30  74 S8        30.01S WCI  31
$$

ABBREVIATIONS USED IN REMARKS
   TC - TEMPERATURE IN CELSIUS
  WCI - WIND CHILL INDEX
   HX - HEAT INDEX
  VSB - VISIBILITY
$$





USA.gov is the U.S. government's official web portal to all federal, state and local government web resources and services.